McCook, NE

1:50 PM CDT on September 26, 2017 (GMT -0500)
McCook Municipal

Weather History for KMCK - January, 2014

Change the Weather History Date:

Friday, January 3, 2014

  Actual Average Record
Temperature  
Mean Temperature 39 °F 27 °F  
Max Temperature 66 °F 40 °F 73 °F (1933)
Min Temperature 11 °F 14 °F -24 °F (1911)
Degree Days  
Heating Degree Days 27    
Moisture  
Dew Point 21 °F    
Average Humidity 62    
Maximum Humidity 92    
Minimum Humidity 19    
Precipitation  
Precipitation 0.00 in 0.01 in 0.12 in (1971)
Month to date precipitation 0.01 0.05  
Year to date precipitation 0.01 0.05  
Sea Level Pressure  
Sea Level Pressure 29.82 in    
Wind  
Wind Speed 7 mph (South)    
Max Wind Speed 21 mph    
Max Gust Speed 29 mph    
Visibility 8 miles    
Events      
T = Trace of Precipitation, MM = Missing Value Source: NWS Daily Summary

Daily Weather History Graph

Daily Weather History Graph

Search for Another Location

Airport or City:

Trip Planner

Search our weather history database for the weather conditions in past years. The results will help you decide how hot, cold, wet, or windy it might be!

Date:

Astronomy

Jan. 03, 2014 Rise Set
Actual Time 8:05 AM CST 5:29 PM CST
Civil Twilight 7:34 AM CST 5:59 PM CST
Nautical Twilight 7:00 AM CST 6:33 PM CST
Astronomical Twilight 6:27 AM CST 7:06 PM CST
Moon 9:32 AM CST (1/3) 8:40 PM CST (1/3)
Length of Visible Light 10h 24m
Length of Day
9h 24m
Waxing Crescent, 8% of the Moon is Illuminated
Jan 3
Waxing Crescent
Jan 7
First Quarter
Jan 15
Full
Jan 23
Last Quarter
Jan 30
New

Hourly Weather History & Observations

Time (CST) Temp. Windchill Dew Point Humidity Pressure Visibility Wind Dir Wind Speed Gust Speed Precip Events Conditions
12:53 AM 21.0 °F 12.4 °F 18.0 °F 88% 30.19 in 9.0 mi ESE 6.9 mph - N/A   Partly Cloudy
1:53 AM 19.0 °F 11.1 °F 17.1 °F 92% 30.16 in 7.0 mi ESE 5.8 mph - N/A   Clear
2:53 AM 17.1 °F 7.6 °F 15.1 °F 92% 30.14 in 6.0 mi East 6.9 mph - N/A   Clear
3:53 AM 15.1 °F 6.4 °F 12.9 °F 91% 30.11 in 5.0 mi ENE 5.8 mph - N/A   Clear
4:53 AM 12.9 °F 6.9 °F 10.9 °F 92% 30.07 in 5.0 mi NE 3.5 mph - N/A   Clear
5:53 AM 12.9 °F 2.6 °F 10.0 °F 88% 30.02 in 5.0 mi ESE 6.9 mph - N/A   Clear
6:53 AM 12.0 °F 5.9 °F 10.0 °F 92% 30.01 in 6.0 mi NNE 3.5 mph - N/A   Clear
7:53 AM 12.9 °F 5.2 °F 10.9 °F 92% 29.97 in 6.0 mi ESE 4.6 mph - N/A   Clear
8:53 AM 17.1 °F - 14.0 °F 88% 29.94 in 6.0 mi Calm Calm - N/A   Clear
9:53 AM 23.0 °F 17.0 °F 19.9 °F 88% 29.92 in 10.0 mi SSW 4.6 mph - N/A   Clear
10:53 AM 30.9 °F 23.5 °F 21.9 °F 69% 29.86 in 10.0 mi WSW 8.1 mph - N/A   Clear
11:53 AM 37.9 °F 32.7 °F 25.0 °F 60% 29.79 in 10.0 mi SSW 6.9 mph - N/A   Clear
12:53 PM 45.0 °F 43.5 °F 27.0 °F 49% 29.73 in 10.0 mi SW 3.5 mph - N/A   Clear
1:53 PM 55.0 °F - 27.0 °F 34% 29.66 in 10.0 mi South 8.1 mph - N/A   Clear
2:53 PM 62.1 °F - 25.0 °F 24% 29.60 in 10.0 mi South 10.4 mph - N/A   Clear
3:53 PM 64.9 °F - 21.0 °F 19% 29.56 in 10.0 mi South 15.0 mph - N/A   Clear
4:53 PM 60.1 °F - 21.0 °F 22% 29.56 in 10.0 mi South 15.0 mph - N/A   Clear
5:53 PM 51.1 °F - 26.1 °F 38% 29.58 in 10.0 mi SSW 10.4 mph - N/A   Clear
6:53 PM 46.9 °F - 27.0 °F 46% 29.59 in 10.0 mi SSW 12.7 mph - N/A   Clear
7:53 PM 46.0 °F 41.0 °F 27.0 °F 47% 29.60 in 10.0 mi SSW 10.4 mph - N/A   Scattered Clouds
8:53 PM 46.9 °F - 26.1 °F 44% 29.61 in 10.0 mi Variable 6.9 mph - N/A   Mostly Cloudy
9:53 PM 44.1 °F 39.5 °F 27.0 °F 51% 29.63 in 10.0 mi SW 8.1 mph - N/A   Overcast
10:53 PM 53.1 °F - 27.0 °F 37% 29.63 in 10.0 mi NW 16.1 mph - N/A   Overcast
11:53 PM 46.9 °F - 28.0 °F 48% 29.63 in 10.0 mi North 20.7 mph 28.8 mph N/A   Scattered Clouds